Header for Extended Forecast Station List Page

Search by: ID | Name | Date | Parm | Value | Avg | % Avg
Sort by: ID | Name | Date | Parm | Value | Avg | % Avg

Enter search or view all records.

Click on id for station plot
#IDNameDateParmValueAvg% Avg
0ABOM8CLARK FORK-ABOVE MISSOULA01-17-2022DISCHARGE (KAF)46063972
1AFRI1SNAKE-AMERICAN FALLS RESERVOIR01-17-2022INFLOW (KAF)15641439109
2ALFW1PEND OREILLE-ALBENI FALLS DAM01-17-2022INFLOW (KAF)4937585084
3ALPW4SNAKE-NEAR ALPINE01-17-2022DISCHARGE (KAF)49462180
4ANAW1SNAKE-NEAR ANATONE01-17-2022DISCHARGE (KAF)6406835677
5ANTI1HENRYS FORK-AT ST. ANTHONY01-17-2022DISCHARGE (KAF)39847883
6ARAI1SF BOISE-ANDERSON RANCH DAM01-17-2022INFLOW (KAF)230227101
7ARDW1ENTIAT-NEAR ARDENVOIR01-17-2022DISCHARGE (KAF)7464117
8BELM8CLARK FORK-BELOW MISSOULA01-17-2022DISCHARGE (KAF)803110972
9BERO3MALHEUR-AGENCY VALLEY DAM01-17-2022INFLOW (KAF)374484
10BFEI1KOOTENAI-AT BONNERS FERRY01-17-2022STAGE (FT)MMM
11BFTI1SNAKE-NEAR BLACKFOOT01-17-2022DISCHARGE (KAF)954786121
12BIGI1BOISE-AT GLENWOOD BRIDGE01-17-2022DISCHARGE (KAF)290137211
13BITM8BITTERROOT-NEAR MISSOULA01-17-2022DISCHARGE (KAF)34244477
14BONM8BLACKFOOT-NEAR BONNER01-17-2022DISCHARGE (KAF)26534976
15BONO3COLUMBIA-BONNEVILLE DAM01-17-2022INFLOW (KAF)4749246810101
16BRNI1SNAKE-BROWNLEE DAM01-17-2022INFLOW (KAF)3814394097
17BUDW1BUMPING-BUMPING LAKE DAM01-17-2022INFLOW (KAF)7061114
18BULO3BULLY CREEK-BULLY CREEK DAM01-17-2022INFLOW (KAF)105184
19CABI1CLARK FORK-CABINET GORGE DAM01-17-2022INFLOW (KAF)3944492680
20CFMM8FLATHEAD-AT COLUMBIA FALLS01-17-2022DISCHARGE (KAF)19341906101
21CHDW1CHELAN-LAKE CHELAN DAM01-17-2022INFLOW (KAF)36140789
22CHEI1FALL RIVER-NEAR CHESTER01-17-2022DISCHARGE (KAF)15218084
23CHJW1COLUMBIA-CHIEF JOSEPH DAM01-17-2022INFLOW (KAF)2863425394113
24CIBW1COLUMBIA-AT INTL BOUNDARY01-17-2022DISCHARGE (KAF)2333419572119
25CLFW1NACHES-NEAR CLIFFDEL01-17-2022DISCHARGE (KAF)20822891
26CLUW1CLE ELUM-CLE ELUM LAKE01-17-2022INFLOW (KAF)242208117
27COEI1COEUR D ALENE-COEUR D ALENE LAKE01-17-2022INFLOW (KAF)24522252109
28CSDI1NF PAYETTE-CASCADE DAM01-17-2022INFLOW (KAF)21925386
29DEDI1DEADWOOD-NEAR LOWMAN01-17-2022INFLOW (KAF)395472
30DLGM8CLARK FORK-AT DEER LODGE01-17-2022DISCHARGE (KAF)465879
31DRMM8CLARK FORK-NR DRUMMOND01-17-2022DISCHARGE (KAF)11215771
32DWRI1NF CLEARWATER-DWORSHAK DAM01-17-2022INFLOW (KAF)20001695118
33EASW1YAKIMA-AT EASTON01-17-2022DISCHARGE (KAF)11699117
34EMMI1PAYETTE-NEAR EMMETT01-17-2022DISCHARGE (KAF)62970190
35FCFM8NF FLATHEAD-NEAR COLUMBIA FALLS01-17-2022DISCHARGE (KAF)557541103
36GCDW1COLUMBIA-GRAND COULEE DAM01-17-2022INFLOW (KAF)2663522768117
37GIBO3UMATILLA-NEAR GIBBON01-17-2022DISCHARGE (KAF)9487107
38HALI1BIG WOOD-AT HAILEY01-17-2022DISCHARGE (KAF)427854
39HEII1SNAKE-NEAR HEISE01-17-2022DISCHARGE (KAF)10891003109
40HHWM8SF FLATHEAD-HUNGRY HORSE DAM01-17-2022INFLOW (KAF)62974584
41HODO3HOOD-NEAR TUCKER BRIDGE01-17-2022DISCHARGE (KAF)326270121
42HOPI1PEND OREILLE-PEND OREILLE LAKE NR HOPE01-17-2022LAKE ELEVATION (FT)MMM
43HOTI1BRUNEAU-NEAR HOT SPRINGS01-17-2022DISCHARGE (KAF)669073
44HWRI1BIG LOST-AT HOWELL RANCH NEAR CHILLY01-17-2022DISCHARGE (KAF)223464
45IHDW1SNAKE-ICE HARBOR DAM01-17-2022INFLOW (KAF)119921306192
46IPDI1HENRYS FORK-ISLAND PARK DAM01-17-2022INFLOW (KAF)11813488
47JDAO3COLUMBIA-JOHN DAY DAM01-17-2022INFLOW (KAF)4576844249103
48JKSW4SNAKE-NEAR JACKSON01-17-2022DISCHARGE (KAF)34748072
49JLKW4SNAKE-JACKSON LAKE AT DAM01-17-2022INFLOW (KAF)17224371
50KADW1KACHESS-KACHESS DAM01-17-2022INFLOW (KAF)9178117
51KEDW1YAKIMA-KEECHELUS LAKE01-17-2022INFLOW (KAF)10482126
52KERM8FLATHEAD-SELI’Š KSANKA QLISPE’ DAM01-17-2022INFLOW (KAF)2125248486
53KIOW1YAKIMA-AT KIONA01-17-2022DISCHARGE (KAF)96598698
54LAUW1KETTLE-AT LAURIER01-17-2022DISCHARGE (KAF)65181980
55LEOI1KOOTENAI-AT LEONIA01-17-2022DISCHARGE (KAF)36602128172
56LGDW1SNAKE-LOWER GRANITE DAM01-17-2022INFLOW (KAF)115931280391
57LGSW1SNAKE-LITTLE GOOSE DAM01-17-2022INFLOW (KAF)115931285490
58LLKW1SPOKANE-AT LONGLAKE01-17-2022INFLOW (KAF)26102617100
59LMNW1SNAKE-LOWER MONUMENTAL DAM01-17-2022INFLOW (KAF)119901304792
60LUCI1BOISE-LUCKY PEAK DAM01-17-2022INFLOW (KAF)669589114
61LWRI1LITTLE WOOD-LITTLE WOOD DAM01-17-2022INFLOW (KAF)4134120
62LYDM8KOOTENAI-LIBBY DAM01-17-2022INFLOW (KAF)16251597102
63MACI1BIG LOST-MACKAY RESERVOIR NEAR MACKAY01-17-2022INFLOW (KAF)293777
64MAGI1BIG WOOD-MAGIC DAM01-17-2022INFLOW (KAF)659568
65MCDW1COLUMBIA-MCNARY DAM01-17-2022INFLOW (KAF)4386342207104
66MILI1SNAKE-AT MILNER01-17-2022DISCHARGE (KAF)M54M
67MODO3DESCHUTES-AT MOODY NR BIGGS01-17-2022DISCHARGE (KAF)15151471103
68MONO3NF JOHN DAY-AT MONUMENT01-17-2022DISCHARGE (KAF)39850878
69MYKO3MCKAY CREEK-NEAR PILOT ROCK01-17-2022DISCHARGE (KAF)394488
70NACW1NACHES-NEAR NACHES01-17-2022DISCHARGE (KAF)29232789
71NOXM8CLARK FORK-NOXON RAPIDS DAM01-17-2022INFLOW (KAF)3536429782
72ORFI1CLEARWATER-AT OROFINO01-17-2022DISCHARGE (KAF)25752447105
73OWYO3OWYHEE-OWYHEE DAM01-17-2022INFLOW (KAF)416247168
74PARI1BOISE-NEAR PARMA01-17-2022DISCHARGE (KAF)406219185
75PARW1YAKIMA-NEAR PARKER01-17-2022DISCHARGE (KAF)65167696
76PATW1METHOW-NEAR PATEROS01-17-2022DISCHARGE (KAF)335319105
77PDTO3UMATILLA-AT PENDLETON01-17-2022DISCHARGE (KAF)231202114
78PESW1WENATCHEE-AT PESHASTIN01-17-2022DISCHARGE (KAF)651638102
79PIHI1PORTNEUF-AT POCATELLO01-17-2022DISCHARGE (KAF)687295
80PITW1KLICKITAT-NEAR PITT01-17-2022DISCHARGE (KAF)509483105
81PLDI1SF SNAKE-PALISADES DAM01-17-2022INFLOW (KAF)809104478
82PRTI1PRIEST-NEAR PRIEST RIVER01-17-2022DISCHARGE (KAF)41246788
83PRWW1COLUMBIA-PRIEST RAPIDS DAM01-17-2022INFLOW (KAF)3077628023110
84RCCM8ROCK CREEK-NEAR CLINTON01-17-2022DISCHARGE (KAF)669668
85REXI1HENRYS FORK-AT REXBURG01-17-2022DISCHARGE (KAF)42851783
86RIDI1WILLOW CREEK-RIRIE DAM01-17-2022INFLOW (KAF)4931157
87RILW1TIETON-RIMROCK LAKE NEAR RIMROCK01-17-2022INFLOW (KAF)10811198
88RRHW1COLUMBIA-ROCKY REACH DAM01-17-2022INFLOW (KAF)3011927087111
89SATI1ST MARIES-NEAR SANTA01-17-2022DISCHARGE (KAF)11912993
90SERO3JOHN DAY-AT SERVICE CK01-17-2022DISCHARGE (KAF)53573473
91SHYI1SNAKE-NEAR SHELLEY01-17-2022DISCHARGE (KAF)11101030108
92SIFI1SNAKE-AB EAGLE ROCK NR IDAHO FALLS01-17-2022DISCHARGE (KAF)11691059110
93SJMI1ST JOE-AT ST MARIES01-17-2022STAGE (FT)MMM
94SNAI1SNAKE-AT BLACKFOOT01-17-2022DISCHARGE (KAF)966791122
95SPDI1CLEARWATER-AT SPALDING01-17-2022DISCHARGE (KAF)51904107126
96SPOW1SPOKANE-AT SPOKANE01-17-2022DISCHARGE (KAF)22792285100
97SRGM8CLARK FORK-AT ST REGIS01-17-2022DISCHARGE (KAF)1122150275
98STRM8ST. REGIS-NEAR ST. REGIS01-17-2022DISCHARGE (KAF)13315487
99SWAI1SNAKE-BELOW SWAN FALLS01-17-2022DISCHARGE (KAF)1739188192
100TCHW1WALLA WALLA-NEAR TOUCHET01-17-2022DISCHARGE (KAF)18423379
101TDAO3COLUMBIA-THE DALLES DAM01-17-2022INFLOW (KAF)4631944788103
102TEAI1TETON-NEAR ST. ANTHONY01-17-2022DISCHARGE (KAF)11214776
103TNAW1TEANAWAY-BELOW FORKS01-17-2022DISCHARGE (KAF)151112134
104TONW1OKANOGAN-NEAR TONASKET01-17-2022DISCHARGE (KAF)752636118
105TRYO3GRANDE RONDE-TROY01-17-2022DISCHARGE (KAF)91598793
106UMAO3UMATILLA-NEAR UMATILLA01-17-2022DISCHARGE (KAF)223182122
107UMTW1YAKIMA-AT UMTANUM01-17-2022DISCHARGE (KAF)553509109
108UNDW1WHITE SALMON-NEAR UNDERWOOD01-17-2022DISCHARGE (KAF)355336106
109WANW1COLUMBIA-WANAPUM DAM01-17-2022INFLOW (KAF)3078027946110
110WEII1SNAKE-AT WEISER01-17-2022DISCHARGE (KAF)3417357196
111WELW1COLUMBIA-WELLS DAM01-17-2022INFLOW (KAF)2969626571112
112WGCM8MF FLATHEAD-NEAR WEST GLACIER01-17-2022DISCHARGE (KAF)34151367
113WHBI1SALMON-AT WHITEBIRD01-17-2022DISCHARGE (KAF)1573228669
114WRMO3MALHEUR-WARM SPRINGS DAM01-17-2022INFLOW (KAF)537571
115WSRI1WEISER-NEAR WEISER01-17-2022DISCHARGE (KAF)359357101